This is the latest recevied weather packets stored in our database for station/object N5JXS. If no packets are shown the sender has not sent any weather packets the latest 10 day(s).
| Time | Temp. | Humidity | Pressure | Rain* | Wind** | Luminosity | Snow |
|---|---|---|---|---|---|---|---|
| 1788466010 | 28.33° C | 20% | 1023.2 hPa | 0 mm | - | 643 W/m² | - |
| 1788465706 | 28.89° C | 19% | 1023.4 hPa | 0 mm | - | 650 W/m² | - |
| 1788465402 | 27.78° C | 20% | 1023.5 hPa | 0 mm | - | 644 W/m² | - |
| 1788465098 | 27.22° C | 20% | 1023.5 hPa | 0 mm | - | 638 W/m² | - |
| 1788464798 | 28.89° C | 18% | 1023.6 hPa | 0 mm | - | 636 W/m² | - |
| 1788464498 | 28.89° C | 17% | 1023.5 hPa | 0 mm | - | 635 W/m² | - |
| 1788464194 | 28.89° C | 17% | 1023.5 hPa | 0 mm | - | 640 W/m² | - |
| 1788463889 | 28.89° C | 20% | 1023.5 hPa | 0 mm | - | 645 W/m² | - |
| 1788463586 | 28.33° C | 21% | 1023.6 hPa | 0 mm | - | 655 W/m² | - |
| 1788463280 | 28.89° C | 19% | 1023.5 hPa | 0 mm | - | 664 W/m² | - |
| 1788462976 | 28.33° C | 19% | 1023.6 hPa | 0 mm | - | 648 W/m² | - |
| 1788462671 | 28.33° C | 20% | 1024 hPa | 0 mm | - | 649 W/m² | - |
| 1788462370 | 27.78° C | 21% | 1023.6 hPa | 0 mm | - | 649 W/m² | - |
| 1788462065 | 28.33° C | 20% | 1023.9 hPa | 0 mm | - | 653 W/m² | - |
| 1788461760 | 27.78° C | 20% | 1023.9 hPa | 0 mm | - | 621 W/m² | - |
| 1788461456 | 27.22° C | 21% | 1024 hPa | 0 mm | - | 611 W/m² | - |
| 1788461152 | 26.67° C | 22% | 1024.2 hPa | 0 mm | - | 597 W/m² | - |
| 1788460847 | 27.22° C | 21% | 1024.2 hPa | 0 mm | - | 606 W/m² | - |
| 1788460546 | 27.78° C | 21% | 1024.5 hPa | 0 mm | - | 597 W/m² | - |
| 1788460241 | 27.78° C | 21% | 1024.2 hPa | 0 mm | - | 609 W/m² | - |
| 1788459939 | 27.78° C | 22% | 1024.4 hPa | 0 mm | - | 619 W/m² | - |
| 1788459637 | 27.78° C | 22% | 1024.4 hPa | 0 mm | - | 626 W/m² | - |
| 1788459335 | 27.22° C | 23% | 1024.4 hPa | 0 mm | - | 622 W/m² | - |
| 1788459034 | 26.67° C | 22% | 1024.4 hPa | 0 mm | - | 613 W/m² | - |
| 1788458730 | 26.67° C | 23% | 1024.8 hPa | 0 mm | - | 618 W/m² | - |
* Rain latest hour (hover to see other rain measurements)
** Current wind speed in m/s (hover to see current wind gust speed)